Dewpoint
71 71 69 70 70 71 71 70 73 73 73 73 73 72 73 70 71 70 70 69 70 71
72 71 71 71 72 70 71 74 74 73 73 73 73 72 72 71 72 70 70 70 71 71
73 72 72 72 71 71 71 71 71 71 72 72 73 72 72 71 71 71 72 71 69 71
73 73 73 72 73 71 70 71 70 69 68 69 71 73 72 72 71 70 71 71 71 69
73 73 72 73 73 72 71 71 69 65 63 64 71 73 73 72 71 70 70 70 71 69
73 72 72 73 73 73 73 72 71 70 68 71 72 73 72 72 71 72 71 71 71 71
69 70 71 74 74 74 74 73 72 73 72 73 73 73 73 72 71 71 71 73 73 72
69 70 69 70 73 73 73 74 73 72 72 74 73 71 73 72 73 71 71 72 73 72
68 68 68 69 70 72 71 72 73 73 73 72 72 69 68 71 72 73 72 71 72 73
66 65 66 67 68 68 69 72 72 72 71 72 73 67 65 65 68 72 72 73 72 71
64 64 64 65 65 66 67 68 69 71 73 72 73 67 64 66 67 67 69 72 73 72
62 62 63 63 64 65 66 66 68 69 70 72 72 66 63 65 69 69 69 69 70 73
59 59 60 62 62 63 64 64 67 67 69 68 72 66 62 63 69 70 71 70 70 65
57 58 57 59 59 59 60 63 64 66 67 69 70 69 59 59 67 71 72 71 70 70
Lifted_Index
-4 -3 -3 -3 -3 -3 -3 -3 -4 -4 -4 -4 -4 -3 -3 -3 -3 -3 -3 -3 -3 -4
-4 -4 -4 -4 -4 -3 -3 -4 -4 -4 -4 -4 -4 -3 -3 -3 -3 -3 -3 -3 -3 -4
-4 -4 -4 -5 -4 -4 -4 -3 -3 -4 -4 -4 -4 -4 -4 -4 -3 -3 -3 -3 -3 -3
-5 -5 -5 -5 -5 -5 -4 -3 -3 -3 -3 -4 -4 -4 -4 -4 -3 -3 -3 -3 -3 -3
-5 -5 -5 -6 -6 -5 -4 -4 -3 -3 -3 -3 -4 -4 -4 -4 -4 -3 -3 -3 -3 -3
-5 -5 -6 -6 -6 -6 -6 -5 -4 -4 -3 -4 -4 -5 -5 -4 -4 -4 -3 -3 -4 -3
-4 -5 -5 -6 -6 -7 -7 -6 -5 -5 -5 -5 -5 -5 -5 -4 -4 -4 -4 -4 -4 -4
-3 -3 -4 -4 -6 -6 -7 -7 -6 -6 -5 -5 -5 -5 -5 -5 -4 -4 -4 -4 -4 -4
-1 -2 -2 -3 -4 -6 -6 -6 -6 -6 -6 -6 -5 -5 -5 -4 -4 -4 -4 -4 -4 -4
-1 -1 -1 -2 -3 -5 -5 -5 -5 -6 -6 -6 -6 -5 -5 -4 -4 -4 -4 -4 -5 -5
-0 -1 -1 -2 -3 -4 -4 -4 -5 -5 -5 -5 -5 -5 -5 -5 -4 -4 -4 -4 -4 -5
2 1 0 -0 -1 -2 -3 -3 -4 -4 -4 -5 -5 -5 -5 -5 -5 -4 -4 -4 -4 -4
5 5 4 3 2 1 0 -1 -2 -2 -3 -4 -4 -4 -4 -4 -4 -4 -4 -4 -4 -4
7 6 6 5 4 4 3 1 -0 -1 -2 -3 -4 -4 -4 -4 -4 -4 -4 -4 -4 -4